User: anonymous   Login
Location: Dead Woman Crossing
(43.5369°N, 106.3228°W)
Time: 20:35:35
(UTC+00:00)
Language:

NOAA 15 - Orbit

View from above orbital plane
View from above orbital plane
View from above satellite
View from above satellite

Ground track
Ground track

The orbit data is extracted from the following two-line orbital elements,

1 25338U 98030A   22178.52278013  .00000147  00000-0  79784-4 0  9990
2 25338  98.6429 207.9265 0009142 267.8895  92.1238 14.26143389254707
Epoch (UTC): 27 June 2022 12:32:48
Eccentricity: 0.0009142
inclination: 98.6429°
perigee height: 798 km
apogee height: 811 km
right ascension of ascending node: 207.9265°
argument of perigee: 267.8895°
revolutions per day: 14.26143389
mean anomaly at epoch: 92.1238°
orbit number at epoch: 25470

The dashed part of the orbit path shows where the satellite is in the earth's shadow,  

DLR